Regional Weather Roundup
Issued by NWS Spokane, WA

Home | Current Version | Previous Version | Text Only | Print | Product List | Glossary On
Versions: 1 2 3 4 5 6 7 8 9 10 11 12 13 14 15 16 17 18 19 20 21 22 23 24 25 26 27 28 29 30 31 32 33 34 35 36 37 38 39 40 41 42 43 44 45 46 47 48 49 50
903
NZUS01 KOTX 270525
RWROTX

Eastern Washington/Northern Idaho Roundup
National Weather Service, Spokane WA
900 PM PST SUN FEB 26 2017

Note: "fair" indicated few or no clouds below 12,000 feet with no
significant weather and/or obstructions to visibility.

...Northeast Washington and Northern Idaho Panhandle...

CITY           SKY/WX    TMP DP  RH WIND       PRES   REMARKS
Spokane Intl   FOG       26  24  92 CALM      29.64S VSB 1/2
Spokane Downto CLOUDY    31  29  92 CALM      29.67S
Coeur d Alene  LGT SNOW  28  27  96 CALM      29.65S FOG
Deer Park      FOG       20  17  88 CALM      29.65F VSB 1/4
Sandpoint      CLOUDY    30  28  93 N3        29.65S
Bonners Ferry  LGT SNOW  27  25  93 N5        29.65S WCI  21

...Southeast Washington and southern Idaho Panhandle...

CITY           SKY/WX    TMP DP  RH WIND       PRES   REMARKS
Walla Walla    LGT RAIN  35  33  92 CALM      29.68R
Pullman/Moscow CLOUDY    25  23  92 CALM      29.65S
Lewiston       LGT SNOW  32  31  96 CALM      29.69R FOG
Lowell           N/A     33  31  92 CALM      29.69S
Grangeville    CLOUDY    30  21  69 SW7       29.61R WCI  23

...Columbia Basin...

CITY           SKY/WX    TMP DP  RH WIND       PRES   REMARKS
Ephrata        MOCLDY    31  23  72 N6        29.70R WCI  25
Moses Lake     PTCLDY    28  25  88 N7        29.71R WCI  21
Pasco          CLOUDY    36  33  89 NW8       29.74R
Richland       LGT RAIN  37  35  93 NW8       29.75R
Hermiston      CLOUDY    36  36 100 NE3       29.71R
Pendleton      LGT SNOW  32  32 100 NW6       29.66S FOG     WCI  26

...East Slopes Cascades...

CITY           SKY/WX    TMP DP  RH WIND       PRES   REMARKS
The Dalles     PTCLDY    37  31  78 W3        29.74R
Yakima         LGT SNOW  35  33  92 W5        29.72R FOG
Ellensburg     CLOUDY    28  24  85 E3        29.69R
Stampede Pass  CLOUDY   N/A N/A N/A CALM      29.60R
Wenatchee      CLOUDY    31  29  92 N3        29.72S
Omak           PTCLDY    29  17  61 N9        29.73R WCI  20
Sunnyside      CLOUDY    32  32 100 NW3       29.72S

...Southern British Columbia...

CITY           SKY/WX    TMP DP  RH WIND       PRES   REMARKS
Penticton      MOCLDY    28  18  64 N7        29.78R WCI  21
Cranbrook      PTCLDY    10   7  85 VRB2      29.65S
Osoyoos          N/A     34  21  60 NW9         N/A  WCI  26
Creston          N/A     27  19  74 NE8         N/A  WCI  18

...Western Montana...

CITY           SKY/WX    TMP DP  RH WIND       PRES   REMARKS
Kalispell      CLOUDY    19  12  74 N18       29.63S WCI   4
Libby            N/A     25  23  93 CALM      29.64S
Missoula       LGT SNOW  29  27  92 CALM      29.60S FOG

...Neighboring Cities...

CITY           SKY/WX    TMP DP  RH WIND       PRES   REMARKS
Seattle        CLOUDY    39  33  79 N6        29.74R
Portland       CLOUDY    38  34  85 SE3       29.77R
Boise          MOCLDY    31  24  75 SE12      29.67S WCI  22
Great Falls    LGT SNOW  15  12  88 NE10      29.70S FOG     WCI   2
Calgary        FLURRIES   9   3  78 S9        29.73F WCI  -5



USA.gov is the U.S. government's official web portal to all federal, state and local government web resources and services.